"Timestamp","TZ","WindDir_Mean (deg)","WindSpd_Mean (km/h)","WindSpd_Min (km/h)","WindSpd_Max (km/h)","Temp_Mean (deg)","RH_Mean (%)","MSLP_Mean (hPa)","Rain_Acc (mm)","Rain_Intensity (mm/h)","Hail_Acc (hits/cm2)","Hail_Intensity (hits/cm2hr)","Solar_Mean (W/m2)"
2020/10/29 00:00:00.007,n,269,6.84,5.04,7.92,17.4,83.5,1013.52,0,0,0,0,0.028763
2020/10/29 00:01:00.000,n,273,6.12,5.04,7.56,17.4,83.6,1013.62,0,0,0,0,0.02964
2020/10/29 00:02:00.001,n,264,5.04,4.32,5.76,17.4,83.6,1013.62,0,0,0,0,0.026131
2020/10/29 00:03:00.000,n,260,5.04,5.04,5.4,17.4,83.7,1013.62,0,0,0,0,0.026131
2020/10/29 00:04:00.000,n,242,3.96,3.6,4.32,17.4,83.8,1013.62,0,0,0,0,0.031357
2020/10/29 00:05:00.000,n,236,2.52,2.52,3.24,17.4,83.7,1013.62,0,0,0,0,0.028763
2020/10/29 00:06:00.008,n,259,3.6,3.24,3.6,17.4,83.7,1013.62,0,0,0,0,0.025291
2020/10/29 00:07:00.005,n,269,3.24,2.88,3.24,17.4,83.9,1013.62,0,0,0,0,0.02964
2020/10/29 00:08:00.001,n,277,2.52,2.52,2.88,17.4,83.7,1013.62,0,0,0,0,0.030479
2020/10/29 00:09:00.000,n,285,1.8,1.44,2.16,17.4,83.7,1013.62,0,0,0,0,0.02964
2020/10/29 00:10:00.000,n,229,0.72,0.72,0.72,17.4,83.7,1013.52,0,0,0,0,0.026131
2020/10/29 00:11:00.000,n,51,2.88,2.88,3.24,17.4,84.5,1013.52,0,0,0,0,0.030479
2020/10/29 00:12:00.000,n,77,1.44,1.08,2.52,17.5,84.6,1013.52,0,0,0,0,0.027008
2020/10/29 00:13:00.005,n,61,3.6,3.24,3.96,17.6,84.6,1013.52,0,0,0,0,0.030479
2020/10/29 00:14:00.002,n,61,3.6,3.24,3.96,17.6,84.4,1013.52,0,0,0,0,0.032234
2020/10/29 00:15:00.000,n,41,3.6,3.6,3.96,17.6,84.5,1013.62,0,0,0,0,0.031357
2020/10/29 00:16:00.012,n,46,3.96,3.6,4.32,17.6,84.6,1013.62,0,0,0,0,0.026131
2020/10/29 00:17:00.009,n,44,5.04,4.32,5.4,17.6,84.1,1013.62,0,0,0,0,0.02964
2020/10/29 00:18:00.006,n,34,6.12,5.4,6.12,17.5,84.1,1013.62,0,0,0,0,0.02964
2020/10/29 00:19:00.000,n,34,7.56,7.2,8.28,17.5,84.4,1013.72,0,0,0,0,0.028763
2020/10/29 00:20:00.000,n,19,6.84,6.48,7.2,17.5,84.6,1013.72,0,0,0,0,0.032234
2020/10/29 00:21:00.000,n,25,5.04,4.32,5.4,17.5,84.6,1013.82,0,0,0,0,0.027885
2020/10/29 00:22:00.000,n,44,4.68,3.96,5.4,17.5,84.6,1013.82,0,0,0,0,0.031357
2020/10/29 00:23:00.000,n,42,9.36,8.28,10.8,17.6,84.6,1013.92,0,0,0,0,0.030479
2020/10/29 00:24:00.007,n,26,7.92,7.56,8.28,17.6,84.6,1013.92,0,0,0,0,0.033989
2020/10/29 00:25:00.006,n,43,4.32,3.6,4.68,17.5,84.6,1014.02,0,0,0,0,0.036583
2020/10/29 00:26:00.003,n,30,4.68,3.6,5.76,17.5,84.5,1014.02,0,0,0,0,0.033112
2020/10/29 00:27:00.000,n,20,2.88,2.16,3.6,17.5,84.6,1014.12,0,0,0,0,0.032234
2020/10/29 00:28:00.000,n,13,3.96,2.88,5.04,17.5,84.6,1014.22,0,0,0,0,0.032234
2020/10/29 00:29:00.000,n,332,1.8,1.08,2.52,17.5,84.5,1014.22,0,0,0,0,0.033112
2020/10/29 00:30:00.000,n,17,1.44,1.08,1.44,17.5,84.7,1014.32,0,0,0,0,0.032234
2020/10/29 00:31:00.005,n,351,3.24,2.88,3.6,17.5,84.6,1014.22,0,0,0,0,0.032234
2020/10/29 00:32:00.002,n,338,1.44,0.72,2.16,17.5,84.5,1014.22,0,0,0,0,0.034866
2020/10/29 00:33:00.000,n,16,2.52,2.16,2.88,17.5,84.6,1014.22,0,0,0,0,0.030479
2020/10/29 00:34:00.000,n,64,2.52,2.52,2.88,17.6,85,1014.12,0,0,0,0,0.02964
2020/10/29 00:35:00.011,n,63,2.88,2.88,3.24,17.6,84.5,1014.12,0,0,0,0,0.030479
2020/10/29 00:36:00.009,n,52,2.88,2.52,3.6,17.6,84.6,1014.12,0,0,0,0,0.02964
2020/10/29 00:37:00.000,n,79,2.52,1.44,2.88,17.6,84.6,1014.12,0,0,0,0,0.031357
2020/10/29 00:38:00.002,n,92,2.88,2.16,3.24,17.6,84.5,1014.12,0,0,0,0,0.035706
2020/10/29 00:39:00.000,n,83,3.24,2.88,3.6,17.6,84.7,1014.02,0,0,0,0,0.031357
2020/10/29 00:40:00.000,n,66,3.24,1.8,4.68,17.7,84.7,1014.02,0,0,0,0,0.033112
2020/10/29 00:41:00.000,n,72,1.8,1.44,2.16,17.7,84.8,1014.12,0,0,0,0,0.031357
2020/10/29 00:42:00.007,n,69,2.52,2.16,2.88,17.7,84.6,1014.12,0,0,0,0,0.033989
2020/10/29 00:43:00.004,n,58,2.88,2.52,2.88,17.7,84.4,1014.12,0,0,0,0,0.033989
2020/10/29 00:44:00.001,n,39,3.24,2.88,3.6,17.7,84.4,1014.12,0,0,0,0,0.035706
2020/10/29 00:45:00.015,n,46,2.16,1.8,2.52,17.7,84.5,1014.22,0,0,0,0,0.035706
2020/10/29 00:46:00.000,n,33,1.08,0.36,1.8,17.7,84.8,1014.22,0,0,0,0,0.033989
2020/10/29 00:47:00.000,n,69,3.6,2.88,3.96,17.7,84.6,1014.22,0,0,0,0,0.033112
2020/10/29 00:48:00.000,n,90,2.16,1.8,2.52,17.7,84.5,1014.22,0,0,0,0,0.030479
2020/10/29 00:49:00.006,n,216,2.88,2.52,3.6,17.7,84.4,1014.22,0,0,0,0,0.028763
2020/10/29 00:50:00.003,n,236,4.32,2.88,5.04,17.7,84.6,1014.22,0,0,0,0,0.033112
2020/10/29 00:51:00.000,n,252,5.04,4.68,6.12,17.7,84.5,1014.22,0,0,0,0,0.033989
2020/10/29 00:52:00.000,n,254,6.84,6.12,8.64,17.7,84.5,1014.22,0,0,0,0,0.035706
2020/10/29 00:53:00.012,n,149,4.32,3.96,4.68,17.7,84.6,1014.22,0,0,0,0,0.036583
2020/10/29 00:54:00.010,n,189,2.16,1.08,2.88,17.7,84.7,1014.12,0,0,0,0,0.036583
2020/10/29 00:55:00.000,n,86,0.72,0,1.08,17.7,84.8,1014.12,0,0,0,0,0.033112
2020/10/29 00:56:00.000,n,206,2.88,2.16,3.6,17.7,84.8,1014.12,0,0,0,0,0.035706
2020/10/29 00:57:00.000,n,103,1.8,1.08,2.16,17.7,84.8,1014.02,0,0,0,0,0.033112
2020/10/29 00:58:00.000,n,186,2.16,1.8,2.52,17.7,84.9,1013.92,0,0,0,0,0.033989
2020/10/29 00:59:00.000,n,233,2.16,1.8,2.88,17.7,84.9,1013.92,0,0,0,0,0.03746
2020/10/29 01:00:00.007,n,240,2.52,2.16,3.24,17.7,84.6,1013.82,0,0,0,0,0.03746
2020/10/29 01:01:00.005,n,220,2.16,1.44,2.52,17.7,84.6,1013.72,0,0,0,0,0.033989
2020/10/29 01:02:00.002,n,267,2.16,1.44,2.52,17.7,84.6,1013.72,0,0,0,0,0.03746
2020/10/29 01:03:00.001,n,142,1.44,0.72,2.16,17.7,85,1013.72,0,0,0,0,0.032234
2020/10/29 01:04:00.000,n,122,2.88,2.52,3.24,17.7,84.9,1013.62,0,0,0,0,0.035706
2020/10/29 01:05:00.000,n,148,2.16,1.8,2.52,17.7,84.6,1013.52,0,0,0,0,0.034866
2020/10/29 01:06:00.000,n,136,2.52,2.16,2.88,17.6,84.2,1013.42,0,0,0,0,0.038338
2020/10/29 01:07:00.000,n,120,2.16,1.44,3.24,17.6,84.3,1013.42,0,0,0,0,0.03746
2020/10/29 01:08:00.005,n,37,4.68,3.96,5.04,17.6,85,1013.32,0,0,0,0,0.034866
2020/10/29 01:09:00.002,n,58,3.96,3.24,4.68,17.7,85.1,1013.32,0,0,0,0,0.034866
2020/10/29 01:10:00.000,n,50,6.84,6.12,7.2,17.7,85,1013.22,0,0,0,0,0.034866
2020/10/29 01:11:00.007,n,43,6.48,5.4,7.2,17.7,84.9,1013.12,0.01,0.3,0,0,0.033989
2020/10/29 01:12:00.012,n,77,5.04,4.68,5.4,17.7,84.8,1013.02,0.01,0.1,0,0,0.040054
2020/10/29 01:13:00.001,n,50,3.6,2.52,4.32,17.7,85.2,1013.02,0.01,0,0,0,0.042686
2020/10/29 01:14:00.000,n,69,4.32,3.96,5.04,17.7,85,1013.02,0.01,0.1,0,0,0.03746
2020/10/29 01:15:00.000,n,59,5.4,4.32,6.48,17.7,85,1012.92,0.01,0,0,0,0.036583
2020/10/29 01:16:00.002,n,96,3.24,2.88,4.68,17.7,85,1013.02,0.01,0,0,0,0.040054
2020/10/29 01:17:00.008,n,129,3.6,2.88,3.96,17.7,84.8,1013.02,0.02,0.5,0,0,0.035706
2020/10/29 01:18:00.000,n,141,3.24,2.52,3.6,17.6,84.8,1012.92,0.03,0.3,0,0,0.036583
2020/10/29 01:19:00.011,n,93,2.88,2.16,3.24,17.6,84.6,1012.72,0.03,0.1,0,0,0.041809
2020/10/29 01:20:00.008,n,127,7.2,6.48,8.28,17.6,84.9,1012.72,0.03,0,0,0,0.044441
2020/10/29 01:21:00.006,n,294,0.36,0,0.72,17.6,84.8,1012.82,0.04,0.8,0,0,0.040932
2020/10/29 01:22:00.000,n,151,1.8,1.44,2.16,17.6,84.7,1012.82,0.04,0,0,0,0.035706
2020/10/29 01:23:00.003,n,209,2.16,1.08,2.88,17.6,84.8,1012.82,0.04,0,0,0,0.035706
2020/10/29 01:24:00.000,n,149,5.4,5.04,6.12,17.6,84.9,1012.72,0.04,0,0,0,0.035706
2020/10/29 01:25:00.000,n,72,3.6,2.88,3.96,17.6,85.1,1012.62,0.04,0,0,0,0.03746
2020/10/29 01:26:00.000,n,113,7.92,6.84,8.64,17.6,84.9,1012.52,0.04,0,0,0,0.040932
2020/10/29 01:27:00.010,n,72,6.12,5.76,6.84,17.6,84.8,1012.42,0.04,0,0,0,0.040932
2020/10/29 01:28:00.007,n,320,3.24,1.08,4.68,17.6,85,1012.32,0.04,0,0,0,0.035706
2020/10/29 01:29:00.004,n,67,5.76,5.04,6.48,17.6,85.1,1012.22,0.05,0,0,0,0.040054
2020/10/29 01:30:00.002,n,81,5.4,3.6,7.92,17.6,85.1,1012.22,0.05,0,0,0,0.03746
2020/10/29 01:31:00.000,n,70,5.4,3.24,6.12,17.6,85,1012.22,0.05,0,0,0,0.036583
2020/10/29 01:32:00.000,n,69,6.48,5.4,7.56,17.6,84.7,1012.22,0.05,0,0,0,0.033112
2020/10/29 01:33:00.000,n,70,9.36,8.64,9.72,17.5,84.7,1012.12,0.05,0,0,0,0.040054
2020/10/29 01:34:00.008,n,45,4.68,3.24,6.48,17.5,84.8,1012.02,0.05,0,0,0,0.039215
2020/10/29 01:35:00.004,n,59,5.76,5.4,6.84,17.5,85,1011.92,0.05,0,0,0,0.041809
2020/10/29 01:36:00.001,n,42,5.04,4.32,6.12,17.5,84.9,1011.92,0.05,0,0,0,0.03746
2020/10/29 01:37:00.000,n,22,5.04,2.52,7.2,17.5,85.2,1011.92,0.05,0,0,0,0.039215
2020/10/29 01:38:00.013,n,57,7.56,6.84,7.92,17.6,84.9,1011.92,0.05,0,0,0,0.040054
2020/10/29 01:39:00.010,n,69,9,7.2,10.08,17.5,84.7,1011.82,0.05,0,0,0,0.034866
2020/10/29 01:40:00.000,n,62,9,7.92,10.08,17.5,84.9,1011.72,0.05,0,0,0,0.039215
2020/10/29 01:41:00.000,n,62,10.8,7.56,12.96,17.5,84.7,1011.72,0.05,0,0,0,0.041809
2020/10/29 01:42:00.001,n,74,9.72,9.36,10.440002,17.5,84.8,1011.72,0.05,0,0,0,0.03746
2020/10/29 01:43:00.000,n,35,9.72,8.28,10.440002,17.5,84.9,1011.72,0.05,0,0,0,0.034866
2020/10/29 01:44:00.000,n,53,4.68,3.96,4.68,17.5,84.9,1011.82,0.05,0,0,0,0.035706
2020/10/29 01:45:00.000,n,54,7.56,6.48,9,17.5,85,1011.82,0.05,0,0,0,0.039215
2020/10/29 01:46:00.009,n,39,7.92,7.56,8.28,17.6,84.9,1011.82,0.05,0,0,0,0.039215
2020/10/29 01:47:00.006,n,34,5.04,1.08,7.92,17.6,84.9,1011.82,0.05,0,0,0,0.033989
2020/10/29 01:48:00.003,n,72,5.4,3.96,6.48,17.5,84.8,1011.72,0.05,0,0,0,0.031357
2020/10/29 01:49:00.000,n,27,9.36,8.28,10.08,17.6,84.8,1011.82,0.05,0,0,0,0.033112
2020/10/29 01:50:00.000,n,48,10.440002,9.72,10.8,17.6,84.5,1011.82,0.05,0,0,0,0.035706
2020/10/29 01:51:00.000,n,38,11.88,10.08,12.6,17.5,84.3,1011.82,0.05,0.2,0,0,0.02964
2020/10/29 01:52:00.000,n,33,9.72,7.2,11.52,17.5,84.3,1011.92,0.06,0.6,0,0,0.040054
2020/10/29 01:53:00.007,n,42,9.36,7.2,11.88,17.5,84.1,1011.92,0.06,0,0,0,0.043564
2020/10/29 01:54:00.005,n,31,14.4,12.96,15.48,17.6,83.8,1011.92,0.06,0.1,0,0,0.039215
2020/10/29 01:55:00.002,n,32,10.8,10.440002,11.52,17.6,83.7,1011.92,0.07,0.3,0,0,0.040932
2020/10/29 01:56:00.000,n,30,10.440002,10.08,11.16,17.6,83.8,1011.92,0.08,0.3,0,0,0.041809
2020/10/29 01:57:00.015,n,24,11.88,9.72,13.68,17.7,83.8,1012.02,0.09,0.5,0,0,0.041809
2020/10/29 01:58:00.000,n,354,11.16,9.36,13.68,17.7,83.5,1012.02,0.09,0.1,0,0,0.035706
2020/10/29 01:59:00.000,n,6,9,3.96,10.08,17.7,83.3,1012.12,0.09,0.3,0,0,0.034866
2020/10/29 02:00:00.000,n,15,15.12,13.68,16.2,17.7,82.7,1012.12,0.1,0.5,0,0,0.031357
2020/10/29 02:01:00.006,n,36,7.56,5.04,10.440002,17.7,82.4,1012.22,0.11,0.3,0,0,0.028763
2020/10/29 02:02:00.002,n,13,9,7.56,10.8,17.8,82.2,1012.22,0.14,1.6,0,0,0.02964
2020/10/29 02:03:00.002,n,18,9.72,8.28,10.440002,17.8,81.9,1012.22,0.17,1.4,0,0,0.035706
2020/10/29 02:04:00.000,n,9,12.6,10.8,17.28,17.8,81.5,1012.22,0.18,1.4,0,0,0.040054
2020/10/29 02:05:00.014,n,59,10.08,2.16,18.359998,17.9,80.9,1012.22,0.24,2.6,0,0,0.040054
2020/10/29 02:06:00.012,n,15,10.08,9.36,10.8,18,80.6,1012.22,0.28,2.6,0,0,0.02964
2020/10/29 02:07:00.000,n,14,5.4,3.24,7.56,18,80.4,1012.22,0.32,2.1,0,0,0.027008
2020/10/29 02:08:00.000,n,330,3.6,2.88,4.68,18.1,80.5,1012.32,0.38,4.1,0,0,0.02964
2020/10/29 02:09:00.000,n,9,3.96,3.24,4.32,18.1,80.4,1012.32,0.47,5.1,0,0,0.023499
2020/10/29 02:10:00.005,n,108,1.8,1.44,2.52,18.2,80.3,1012.22,0.5,1.2,0,0,0.032234
2020/10/29 02:11:00.000,n,280,0.72,0.36,0.72,18.2,80.6,1012.22,0.53,2.6,0,0,0.027885
2020/10/29 02:12:00.000,n,155,4.32,3.96,4.32,18.2,81,1012.22,0.6,3.9,0,0,0.027885
2020/10/29 02:13:00.006,n,105,4.32,3.6,4.68,18.2,80.2,1012.12,0.64,2.3,0,0,0.031357
2020/10/29 02:14:00.012,n,154,7.2,7.2,7.2,18.1,80.1,1012.02,0.69,3.1,0,0,0.033112
2020/10/29 02:15:00.002,n,141,5.76,4.68,6.48,18.1,80.6,1012.02,0.74,2.9,0,0,0.023499
2020/10/29 02:16:00.000,n,75,4.32,2.52,5.76,18.1,80.1,1011.92,0.83,5.8,0,0,0.02964
2020/10/29 02:17:00.000,n,109,6.84,6.48,7.56,18.1,80.3,1011.92,0.88,2.8,0,0,0.030479
2020/10/29 02:18:00.004,n,13,3.96,2.16,4.68,18.1,80.4,1011.82,0.97,3.9,0,0,0.033112
2020/10/29 02:19:00.000,n,80,5.76,4.68,7.56,18.2,80.8,1011.72,1.02,4.9,0,0,0.031357
2020/10/29 02:20:00.000,n,65,7.56,6.48,8.28,18.2,80.6,1011.62,1.07,2.4,0,0,0.026131
2020/10/29 02:21:00.007,n,85,7.92,5.4,8.64,18.2,80.5,1011.52,1.11,2.5,0,0,0.024414
2020/10/29 02:22:00.000,n,52,7.92,5.4,10.8,18.2,81,1011.22,1.18,4.4,0,0,0.026131
2020/10/29 02:23:00.002,n,75,11.52,10.440002,12.96,18.2,81.3,1010.92,1.21,1.6,0,0,0.027008
2020/10/29 02:24:00.008,n,57,11.52,10.440002,12.96,18.2,81.8,1010.82,1.22,0.9,0,0,0.026131
2020/10/29 02:25:00.000,n,67,14.04,12.24,15.12,18.2,82.1,1010.72,1.24,1.2,0,0,0.02964
2020/10/29 02:26:00.000,n,65,11.88,7.2,18,18.1,82.4,1010.62,1.28,2,0,0,0.028763
2020/10/29 02:27:00.000,n,72,16.2,14.76,17.28,18.1,82.4,1010.72,1.29,0.6,0,0,0.02964
2020/10/29 02:28:00.000,n,101,7.56,6.12,9.72,18.1,82.6,1010.92,1.29,0,0,0,0.031357
2020/10/29 02:29:00.007,n,91,6.48,3.6,8.64,18.1,82.9,1011.12,1.29,0,0,0,0.033112
2020/10/29 02:30:00.000,n,307,5.76,4.68,6.48,18.1,83.1,1011.42,1.29,0,0,0,0.030479
2020/10/29 02:31:00.002,n,292,7.56,6.48,9.36,18.1,83.5,1011.72,1.29,0,0,0,0.028763
2020/10/29 02:32:00.009,n,184,1.08,0.36,1.8,18.2,83.7,1011.72,1.29,0,0,0,0.030479
2020/10/29 02:33:00.015,n,251,4.68,4.32,5.04,18.2,82.9,1011.72,1.29,0,0,0,0.032234
2020/10/29 02:34:00.000,n,263,7.2,6.84,7.56,18.1,82.7,1011.72,1.29,0,0,0,0.027885
2020/10/29 02:35:00.000,n,245,8.64,7.92,9,18.1,82.8,1011.72,1.29,0,0,0,0.030479
2020/10/29 02:36:00.000,n,257,6.84,6.48,7.2,18,82.7,1011.72,1.29,0,0,0,0.032234
2020/10/29 02:37:00.005,n,246,5.04,4.32,5.4,18,82.8,1011.72,1.29,0,0,0,0.02964
2020/10/29 02:38:00.000,n,255,7.2,5.76,8.28,18,82.8,1011.82,1.29,0,0,0,0.030479
2020/10/29 02:39:00.000,n,273,6.12,4.68,7.92,18,82.8,1011.82,1.29,0,0,0,0.026131
2020/10/29 02:40:00.006,n,267,5.76,5.04,6.12,18,82.9,1011.82,1.29,0,0,0,0.033989
2020/10/29 02:41:00.012,n,246,2.52,1.8,3.24,18,82.5,1011.82,1.29,0,0,0,0.033989
2020/10/29 02:42:00.001,n,267,7.2,7.2,7.2,17.9,82.3,1011.82,1.29,0,0,0,0.031357
2020/10/29 02:43:00.000,n,267,7.56,6.48,7.92,17.9,82.4,1011.82,1.29,0,0,0,0.027885
2020/10/29 02:44:00.000,n,259,10.8,10.08,12.24,18,82.3,1011.82,1.29,0,0,0,0.026131
2020/10/29 02:45:00.000,n,269,9,7.92,10.08,18,82.3,1011.82,1.29,0,0,0,0.031357
2020/10/29 02:46:00.006,n,266,8.64,7.56,9.72,18,82.4,1011.82,1.29,0,0,0,0.032234
2020/10/29 02:47:00.000,n,267,11.16,10.440002,11.88,18,82.5,1011.82,1.29,0,0,0,0.031357
2020/10/29 02:48:00.000,n,283,7.2,2.88,9,17.9,82.6,1011.82,1.29,0,0,0,0.030479
2020/10/29 02:49:00.006,n,284,6.84,6.12,7.2,17.9,82.8,1011.92,1.29,0,0,0,0.032234
2020/10/29 02:50:00.012,n,277,5.4,4.32,6.12,17.9,83.3,1011.92,1.29,0,0,0,0.033989
2020/10/29 02:51:00.002,n,263,3.6,0.36,5.76,17.9,83.2,1011.92,1.29,0,0,0,0.028763
2020/10/29 02:52:00.000,n,254,1.44,0.72,2.16,17.9,83.7,1011.82,1.29,0,0,0,0.031357
2020/10/29 02:53:00.000,n,274,7.56,6.48,8.28,17.9,84.1,1011.82,1.29,0,0,0,0.027885
2020/10/29 02:54:00.003,n,287,4.32,1.44,5.4,18,84.7,1011.82,1.29,0,0,0,0.033112
2020/10/29 02:55:00.000,n,295,4.68,2.88,6.12,18,84.8,1011.72,1.29,0,0,0,0.031357
2020/10/29 02:56:00.000,n,303,7.92,5.76,10.8,18,84.6,1011.72,1.29,0,0,0,0.033112
2020/10/29 02:57:00.003,n,289,6.48,4.68,8.28,18.1,84.4,1011.82,1.29,0,0,0,0.027008
2020/10/29 02:58:00.009,n,265,6.84,6.48,7.56,18,84,1011.92,1.29,0,0,0,0.02964
2020/10/29 02:59:00.015,n,239,6.84,5.76,7.56,17.9,83.5,1011.92,1.29,0,0,0,0.028763
2020/10/29 03:00:00.004,n,251,8.28,6.84,9.36,17.8,83.6,1011.92,1.29,0,0,0,0.02964
2020/10/29 03:01:00.000,n,275,12.6,11.88,12.6,17.8,83.4,1011.92,1.29,0,0,0,0.028763
2020/10/29 03:02:00.000,n,266,11.88,10.08,13.32,17.7,83.5,1012.02,1.29,0,0,0,0.027008
2020/10/29 03:03:00.004,n,251,9,7.56,10.08,17.6,83.5,1012.02,1.29,0,0,0,0.028763
2020/10/29 03:04:00.000,n,266,11.16,10.8,11.52,17.6,83.5,1012.02,1.29,0,0,0,0.033112
2020/10/29 03:05:00.000,n,270,12.6,11.52,13.32,17.6,83.3,1012.02,1.29,0,0,0,0.023499
2020/10/29 03:06:00.004,n,259,11.16,9.36,11.88,17.5,83.5,1012.02,1.29,0,0,0,0.025291
2020/10/29 03:07:00.010,n,259,14.4,13.68,15.48,17.5,83.4,1012.02,1.29,0,0,0,0.02964
2020/10/29 03:08:00.000,n,251,10.440002,9,12.6,17.5,83.4,1012.02,1.29,0,0,0,0.030479
2020/10/29 03:09:00.004,n,241,10.8,7.92,12.96,17.4,83.2,1012.02,1.29,0,0,0,0.028763
2020/10/29 03:10:00.000,n,275,11.88,10.8,12.96,17.4,83.3,1011.92,1.29,0,0,0,0.026131
2020/10/29 03:11:00.000,n,256,8.64,7.56,10.08,17.4,83.6,1011.92,1.29,0,0,0,0.027885
2020/10/29 03:12:00.005,n,258,10.440002,9.72,11.16,17.4,83.3,1011.92,1.29,0,0,0,0.024414
2020/10/29 03:13:00.000,n,285,12.24,11.16,12.96,17.3,83.3,1011.92,1.29,0,0,0,0.027008
2020/10/29 03:14:00.000,n,266,12.6,11.52,14.04,17.3,83.2,1011.92,1.29,0,0,0,0.027885
2020/10/29 03:15:00.005,n,267,8.64,8.28,9.36,17.3,83.2,1011.82,1.29,0,0,0,0.025291
2020/10/29 03:16:00.011,n,258,9.72,7.92,11.16,17.2,83.2,1011.82,1.29,0,0,0,0.026131
2020/10/29 03:17:00.000,n,278,12.6,11.52,14.04,17.2,82.9,1011.82,1.29,0,0,0,0.024414
2020/10/29 03:18:00.006,n,273,7.56,6.12,8.64,17.2,83.2,1011.82,1.29,0,0,0,0.026131
2020/10/29 03:19:00.000,n,245,10.08,8.28,11.16,17.2,83.2,1011.82,1.29,0,0,0,0.026131
2020/10/29 03:20:00.001,n,285,7.2,4.68,10.8,17.2,83.2,1011.82,1.29,0,0,0,0.020905
2020/10/29 03:21:00.000,n,263,8.28,6.84,9.72,17.2,83.3,1011.82,1.29,0,0,0,0.025291
2020/10/29 03:22:00.000,n,272,6.84,5.04,9,17.2,83.4,1011.82,1.29,0,0,0,0.022659
2020/10/29 03:23:00.002,n,252,5.4,4.68,7.2,17.2,83.5,1011.82,1.29,0,0,0,0.023499
2020/10/29 03:24:00.008,n,259,8.28,7.92,9,17.2,83.4,1011.82,1.29,0,0,0,0.023499
2020/10/29 03:25:00.000,n,278,7.2,5.04,8.64,17.2,83.5,1011.82,1.29,0,0,0,0.023499
2020/10/29 03:26:00.002,n,249,2.88,0.72,4.32,17.2,83.5,1011.82,1.29,0,0,0,0.020065
2020/10/29 03:27:00.009,n,271,4.68,3.6,5.4,17.2,83.6,1011.82,1.29,0,0,0,0.01915
2020/10/29 03:28:00.000,n,274,4.68,4.32,5.04,17.2,83.7,1011.82,1.29,0,0,0,0.027008
2020/10/29 03:29:00.000,n,260,6.48,5.76,7.56,17.2,83.8,1011.82,1.29,0,0,0,0.018311
2020/10/29 03:30:00.000,n,280,5.04,5.04,5.4,17.2,83.7,1011.82,1.29,0,0,0,0.023499
2020/10/29 03:31:00.000,n,273,7.2,6.12,8.28,17.2,83.7,1011.72,1.29,0,0,0,0.024414
2020/10/29 03:32:00.005,n,273,5.04,4.32,5.4,17.1,83.7,1011.72,1.29,0,0,0,0.026131
2020/10/29 03:33:00.010,n,264,4.68,3.96,5.4,17.1,83.8,1011.72,1.29,0,0,0,0.023499
2020/10/29 03:34:00.000,n,266,2.16,1.8,2.16,17.1,83.7,1011.72,1.29,0,0,0,0.026131
2020/10/29 03:35:00.005,n,279,2.88,2.52,3.96,17.2,84.3,1011.72,1.29,0,0,0,0.020905
2020/10/29 03:36:00.011,n,281,5.4,4.68,5.4,17.2,84.3,1011.72,1.29,0,0,0,0.022659
2020/10/29 03:37:00.000,n,273,5.04,4.68,5.4,17.3,84,1011.72,1.29,0,0,0,0.023499
2020/10/29 03:38:00.000,n,265,2.88,2.16,2.88,17.2,83.9,1011.72,1.29,0,0,0,0.020905
2020/10/29 03:39:00.000,n,282,4.32,3.96,4.68,17.2,83.8,1011.72,1.29,0,0,0,0.026131
2020/10/29 03:40:00.000,n,282,5.4,3.96,5.76,17.2,84.7,1011.72,1.29,0,0,0,0.027008
2020/10/29 03:41:00.007,n,301,6.48,5.4,7.56,17.3,84.9,1011.72,1.29,0,0,0,0.022659
2020/10/29 03:42:00.000,n,293,6.48,4.68,8.28,17.5,85.8,1011.82,1.29,0,0,0,0.024414
2020/10/29 03:43:00.002,n,273,5.04,4.32,5.4,17.6,85.2,1011.82,1.29,0,0,0,0.023499
2020/10/29 03:44:00.007,n,329,1.44,0.36,3.6,17.6,84.3,1011.82,1.29,0,0,0,0.020905
2020/10/29 03:45:00.013,n,259,3.6,2.88,4.32,17.5,84.4,1011.82,1.29,0,0,0,0.022659
2020/10/29 03:46:00.000,n,280,4.32,3.24,5.04,17.5,84.2,1011.82,1.29,0,0,0,0.020065
2020/10/29 03:47:00.000,n,281,7.2,6.12,8.28,17.5,84.2,1011.82,1.29,0,0,0,0.020065
2020/10/29 03:48:00.000,n,262,4.32,3.96,4.68,17.4,84,1011.82,1.29,0,0,0,0.017433
2020/10/29 03:49:00.004,n,276,5.76,5.04,6.48,17.4,84.5,1011.82,1.29,0,0,0,0.022659
2020/10/29 03:50:00.000,n,296,4.32,1.44,5.76,17.4,84.3,1011.82,1.29,0,0,0,0.020065
2020/10/29 03:51:00.000,n,269,2.16,1.8,2.88,17.3,84.2,1011.82,1.29,0,0,0,0.020905
2020/10/29 03:52:00.004,n,271,6.12,5.4,6.48,17.3,84,1011.82,1.29,0,0,0,0.023499
2020/10/29 03:53:00.009,n,266,6.84,6.48,7.2,17.3,83.9,1011.82,1.29,0,0,0,0.020905
2020/10/29 03:54:00.014,n,268,4.68,3.96,6.12,17.2,84,1011.82,1.29,0,0,0,0.017433
2020/10/29 03:55:00.000,n,286,4.32,3.6,5.76,17.2,84.4,1011.72,1.29,0,0,0,0.022659
2020/10/29 03:56:00.000,n,252,3.24,2.52,3.96,17.3,84.2,1011.72,1.29,0,0,0,0.023499
2020/10/29 03:57:00.000,n,252,4.32,3.96,4.68,17.3,84.2,1011.72,1.29,0,0,0,0.025291
2020/10/29 03:58:00.005,n,278,1.8,1.08,2.52,17.3,84.8,1011.62,1.29,0,0,0,0.021782
2020/10/29 03:59:00.000,n,292,5.76,4.32,7.2,17.4,84.9,1011.62,1.29,0,0,0,0.022659
2020/10/29 04:00:00.000,n,35,2.88,1.08,3.96,17.5,85.1,1011.62,1.29,0,0,0,0.027008
2020/10/29 04:01:00.006,n,260,2.16,1.44,3.6,17.5,84.7,1011.62,1.29,0,0,0,0.021782
2020/10/29 04:02:00.012,n,285,2.52,2.16,2.52,17.5,84.1,1011.62,1.29,0,0,0,0.020905
2020/10/29 04:03:00.001,n,14,3.24,2.88,3.6,17.4,84.3,1011.62,1.29,0,0,0,0.024414
2020/10/29 04:04:00.000,n,319,1.08,0.72,1.44,17.4,84.2,1011.72,1.29,0,0,0,0.020905
2020/10/29 04:05:00.000,n,141,0.72,0.72,1.08,17.4,84.2,1011.72,1.29,0,0,0,0.022659
2020/10/29 04:06:00.002,n,175,0.36,0.36,0.72,17.4,84.2,1011.72,1.29,0,0,0,0.024414
2020/10/29 04:07:00.000,n,198,0.72,0.36,1.44,17.3,84,1011.72,1.29,0,0,0,0.020065
2020/10/29 04:08:00.000,n,228,3.6,3.24,4.32,17.3,84,1011.72,1.29,0,0,0,0.022659
2020/10/29 04:09:00.002,n,201,0.72,0.36,1.08,17.3,83.9,1011.72,1.29,0,0,0,0.020065
2020/10/29 04:10:00.008,n,246,1.08,0.72,1.44,17.3,83.9,1011.72,1.29,0,0,0,0.020905
2020/10/29 04:11:00.013,n,287,0.72,0.36,1.08,17.2,84,1011.72,1.29,0,0,0,0.021782
2020/10/29 04:12:00.003,n,26,0.36,0,1.08,17.3,84.4,1011.72,1.29,0,0,0,0.023499
2020/10/29 04:13:00.000,n,39,2.88,2.52,3.24,17.3,84.2,1011.72,1.29,0,0,0,0.023499
2020/10/29 04:14:00.000,n,21,4.68,3.96,5.04,17.3,84.2,1011.82,1.29,0,0,0,0.023499
2020/10/29 04:15:00.004,n,9,3.96,3.96,4.32,17.2,83.8,1011.82,1.29,0,0,0,0.023499
2020/10/29 04:16:00.000,n,10,4.32,3.96,4.32,17.2,83.7,1011.82,1.29,0,0,0,0.020905
2020/10/29 04:17:00.000,n,350,5.04,4.32,5.76,17.2,83.8,1011.82,1.29,0,0,0,0.022659
2020/10/29 04:18:00.004,n,352,5.04,4.68,5.04,17.2,83.7,1011.82,1.29,0,0,0,0.022659
2020/10/29 04:19:00.011,n,17,4.68,3.96,5.4,17.2,83.9,1011.82,1.29,0,0,0,0.021782
2020/10/29 04:20:00.001,n,352,5.76,5.76,6.12,17.2,83.8,1011.82,1.29,0,0,0,0.020905
2020/10/29 04:21:00.007,n,356,6.12,5.76,6.84,17.2,83.5,1011.82,1.29,0,0,0,0.020065
2020/10/29 04:22:00.000,n,305,3.6,2.52,4.68,17.2,83.6,1011.82,1.29,0,0,0,0.017433
2020/10/29 04:23:00.002,n,6,5.4,4.32,6.48,17.3,83.8,1011.82,1.29,0,0,0,0.023499
2020/10/29 04:24:00.000,n,355,5.4,5.4,5.76,17.4,83.4,1011.82,1.29,0,0,0,0.020065
2020/10/29 04:25:00.000,n,358,3.96,3.24,3.96,17.4,83.2,1011.82,1.29,0,0,0,0.022659
2020/10/29 04:26:00.002,n,352,2.88,2.52,3.24,17.4,83.2,1011.82,1.29,0,0,0,0.021782
2020/10/29 04:27:00.008,n,25,1.8,1.44,2.16,17.4,83.2,1011.82,1.29,0,0,0,0.025291
2020/10/29 04:28:00.000,n,61,0.36,0.36,0.72,17.4,83.2,1011.82,1.29,0,0,0,0.021782
2020/10/29 04:29:00.003,n,25,2.52,2.16,2.88,17.4,83.1,1011.82,1.29,0,0,0,0.027008
2020/10/29 04:30:00.008,n,12,3.6,3.24,3.96,17.4,83.1,1011.82,1.29,0,0,0,0.026131
2020/10/29 04:31:00.000,n,24,3.24,2.88,3.6,17.4,83,1011.82,1.29,0,0,0,0.027885
2020/10/29 04:32:00.003,n,32,4.68,4.32,5.04,17.3,83.2,1011.82,1.29,0,0,0,0.028763
2020/10/29 04:33:00.000,n,26,6.12,5.04,7.2,17.3,82.9,1011.82,1.29,0,0,0,0.02964
2020/10/29 04:34:00.000,n,354,5.04,4.68,5.76,17.3,83,1011.82,1.29,0,0,0,0.02964
2020/10/29 04:35:00.004,n,354,2.16,1.8,2.52,17.3,82.9,1011.82,1.29,0,0,0,0.04528
2020/10/29 04:36:00.008,n,28,1.8,1.08,2.52,17.3,83.3,1011.92,1.29,0,0,0,0.04879
2020/10/29 04:37:00.000,n,355,3.24,2.88,3.24,17.3,83,1011.92,1.29,0,0,0,0.054855
2020/10/29 04:38:00.003,n,173,1.8,0.36,4.32,17.3,83,1011.92,1.29,0,0,0,0.055733
2020/10/29 04:39:00.008,n,216,1.8,1.44,2.52,17.3,83.1,1011.92,1.29,0,0,0,0.066185
2020/10/29 04:40:00.000,n,190,0.72,0.36,0.72,17.3,83.1,1011.92,1.29,0,0,0,0.077515
2020/10/29 04:41:00.003,n,209,1.8,1.8,2.16,17.3,83.1,1011.92,1.29,0,0,0,0.089722
2020/10/29 04:42:00.000,n,234,2.16,2.16,2.52,17.3,83.1,1011.92,1.29,0,0,0,0.108871
2020/10/29 04:43:00.000,n,268,1.44,1.08,1.8,17.3,83.1,1012.02,1.29,0,0,0,0.127983
2020/10/29 04:44:00.004,n,13,3.96,3.6,3.96,17.3,83.3,1012.02,1.29,0,0,0,0.16716
2020/10/29 04:45:00.010,n,8,5.4,5.04,5.76,17.3,83.3,1012.02,1.29,0,0,0,0.20977
2020/10/29 04:46:00.000,n,356,3.96,3.6,4.32,17.3,83,1012.02,1.29,0,0,0,0.26371